| time (UTC) | temp F | wind direction | speed knots | gust knots | rain 1hr in | rain 24hr in | rain mn in | humidity % | barometer mb |
| 20260507201746 | 41 | 10 | 13.9 | 0.0 | 0.00 | 0.00 | 0.00 | 99 | |
| 20260507191846 | 43 | 10 | 10.4 | 0.0 | 0.00 | 0.00 | 0.00 | 99 | |
| 20260507181745 | 43 | 360 | 17.4 | 0.0 | 0.00 | 0.00 | 0.00 | 99 | |
| 20260507171745 | 43 | 10 | 20.9 | 0.0 | 0.00 | 0.00 | 0.00 | 99 | |
| 20260507162046 | 45 | 10 | 12.2 | 0.0 | 0.00 | 0.00 | 0.00 | 99 | |
| 20260507151745 | 46 | 360 | 13.9 | 0.0 | 0.00 | 0.00 | 0.00 | 99 | |
| 20260507141745 | 46 | 310 | 12.2 | 0.0 | 0.00 | 0.00 | 0.00 | 99 | |
| 20260507131846 | 48 | 340 | 10.4 | 0.0 | 0.00 | 0.00 | 0.00 | 99 | |
| 20260507121745 | 54 | 250 | 12.2 | 20.9 | 0.00 | 0.00 | 0.00 | 87 | |
| 20260507111745 | 52 | 230 | 15.6 | 0.0 | 0.00 | 0.00 | 0.00 | 93 | |
| 20260507101945 | 52 | 230 | 15.6 | 0.0 | 0.00 | 0.00 | 0.00 | 99 | |
| 20260507091745 | 50 | 230 | 10.4 | 0.0 | 0.00 | 0.00 | 0.00 | 99 | |
| 20260507081745 | 48 | 270 | 7.8 | 0.0 | 0.00 | 0.00 | 0.00 | 99 | |
| 20260507071745 | 48 | 270 | 6.1 | 0.0 | 0.00 | 0.00 | 0.00 | 99 | |
| 20260507061745 | 48 | 310 | 4.3 | 0.0 | 0.00 | 0.00 | 0.00 | 99 | |
| 20260507051744 | 48 | 240 | 10.4 | 0.0 | 0.00 | 0.00 | 0.00 | 99 | |
| 20260507041947 | 48 | 0 | 0.0 | 0.0 | 0.00 | 0.00 | 0.00 | 99 | |
| 20260507031744 | 48 | 250 | 4.3 | 0.0 | 0.00 | 0.00 | 0.00 | 99 | |
| 20260507021743 | 48 | 230 | 6.1 | 0.0 | 0.00 | 0.00 | 0.00 | 99 | |
| 20260507011845 | 48 | 350 | 7.8 | 0.0 | 0.00 | 0.00 | 0.00 | 99 | |
| 20260507001745 | 50 | 250 | 12.2 | 0.0 | 0.00 | 0.00 | 0.00 | 99 | |
| 20260506231745 | 50 | 250 | 7.8 | 0.0 | 0.00 | 0.00 | 0.00 | 99 | |
| 20260506221945 | 50 | 240 | 13.9 | 0.0 | 0.00 | 0.00 | 0.00 | 99 | |
| 20260506211744 | 52 | 100 | 6.1 | 0.0 | 0.00 | 0.00 | 0.00 | 99 |